Regional Weather Roundup
Issued by NWS

Home | Current Version | Previous Version | Graphics & Text | Print | Product List | Glossary On
Versions: 1 2 3 4 5 6 7 8 9 10 11 12 13 14 15 16 17 18 19 20 21 22 23 24 25 26 27 28 29 30 31 32 33 34 35 36 37 38 39 40 41 42 43 44 45 46 47 48 49 50
000
ASUS45 KTFX 240319
RWRMT
MONTANA HOURLY WEATHER ROUNDUP
NATIONAL WEATHER SERVICE GREAT FALLS MT
919 PM MDT THU OCT 23 2014

NOTE: "FAIR" INDICATES FEW OR NO CLOUDS BELOW 12000 FEET WITH NO
SIGNIFICANT WEATHER AND/OR OBSTRUCTIONS TO VISIBILITY.

* THESE STATIONS ARE NOT UNDER NWS QUALITY CONTROL. THEY DO NOT
   REPORT WEATHER SUCH AS PRECIPITATION OR FOG.

MTZ001>007-043-240400-
WEST OF THE DIVIDE
CITY           SKY/WX    TMP DP  RH WIND       PRES   REMARKS
KALISPELL      CLOUDY    48  45  89 S10       29.87R
MISSOULA       CLOUDY    48  45  89 CALM      29.98R
BUTTE          LGT RAIN  46  39  77 W10G16    29.98S
MULLAN PASS    CLOUDY    34  34 100 SW8G16    29.93R WCI  27
* ESSEX        N/A       45  43  93 S1G7       N/A
* LINCOLN      N/A       45  42  89 SW3G11     N/A
* POLSON       N/A       45  45 100 S2G7       N/A
* RONAN APT    CLOUDY    48  45  89 SE6        N/A
* SEELEY LAKE  N/A       47  39  74 SW3G11     N/A
* THOMP F APT  CLOUDY    48  31  52 SE7G17     N/A
$$

MTZ008-052>055-240400-
SOUTHWEST MONTANA
CITY           SKY/WX    TMP DP  RH WIND       PRES   REMARKS
BOZEMAN        CLOUDY    55  32  42 CALM      29.93R
DILLON         CLOUDY    54  34  47 SW10      29.97R
W YELLOWSTONE  CLOUDY    46  30  54 SW9G20    30.10R
* THREE FORKS  CLOUDY    61  37  41 S16G25     N/A
* BOULDER HILL N/A       47  38  71 S9         N/A
* MONIDA PASS  N/A       46  32  58 S19G24     N/A
* RAYNOLDS PAS N/A       49  32  52 S17G26     N/A
* WHITEHALL    N/A       57  32  39 NW9G17     N/A
* WISE RIVER   N/A       46  40  80 NW6        N/A
$$

MTZ009>010-012-014-046-048-049-054-240400-
EAST SLOPES AND CENTRAL MONTANA
CITY           SKY/WX    TMP DP  RH WIND       PRES   REMARKS
CUT BANK       CLOUDY    48  39  71 SW18      29.79R
GREAT FALLS    CLOUDY    54  37  53 SW17      29.83R
HELENA         CLOUDY    59  37  44 SW10      29.90R
MALMSTROM AFB  CLOUDY    57  37  47 SW23G30   29.84R
* CONRAD       CLOUDY    52  43  72 SW10G20    N/A
* DEARBORN     N/A       56  40  55 S13        N/A
* EAST GLACIER N/A       42  40  93 W17G24     N/A
* MONARCH      N/A       52  24  34 SW19G34    N/A
* PENDROY      N/A       48  37  66 W22G28     N/A
* ROGERS PASS  N/A       42  39  89 SE7G18     N/A
* SAINT MARY   N/A       43  41  93 S4G14      N/A
* SWEET GRASS  N/A       50  38  64 SW22G30    N/A
* WHITE SULPH  N/A       54  33  45 SW11G17    N/A
$$

MTZ011-013-016-021-035-040-045-047-050-051-240400-
NORTH CENTRAL MONTANA
CITY           SKY/WX    TMP DP  RH WIND       PRES   REMARKS
HAVRE          CLOUDY    54  39  57 SW9       29.76S
LEWISTOWN      CLOUDY    55  34  45 SW13      29.85S
* CHINOOK      CLOUDY    61  39  44 SW9       29.75R
* FORT BENTON  CLOUDY    59  37  44 SW10      29.81R
* CHESTER      N/A       51  39  64 W8         N/A
* DENTON       N/A       54  35  49 SW11       N/A
* GEYSER       N/A       57  32  39 W17G22     N/A
* JUDITH GAP   N/A       50  31  48 N/A        N/A
* LOMA         N/A       60  38  44 SW17G22    N/A
$$

MTZ017>020-022>027-061-062-240400-
NORTHEAST MONTANA
CITY           SKY/WX    TMP DP  RH WIND       PRES   REMARKS
GLASGOW        CLOUDY    57  37  47 S3        29.77R
GLENDIVE       MOCLDY    48  36  63 W3        29.83F
JORDAN         CLOUDY    45  36  71 CALM      29.81S
SIDNEY         CLOUDY    46  36  68 CALM      29.81S
WOLF POINT     CLOUDY    45  37  74 W3        29.77S
* BEAVER HILL  N/A       52  33  48 S10        N/A
* CIRCLE       N/A       49  38  66 N/A        N/A
* LINDSAY DVD  N/A       51  36  57 W6         N/A
* NAVAJO       N/A       51  38  61 N/A        N/A
* SACO         N/A       53  40  62 S8         N/A
$$

MTZ028>042-056>058-240400-
SOUTHCENTRAL AND SOUTHEAST MONTANA
CITY           SKY/WX    TMP DP  RH WIND       PRES   REMARKS
BAKER          CLOUDY    54  30  40 SW9       29.86F
BILLINGS       MOCLDY    61  27  27 SW7       29.87F
LIVINGSTON     PTCLDY    61  28  29 SW25G39   29.90R
MILES CITY     PTCLDY    52  34  50 S8        29.84R
* LAUREL APT   PTCLDY    55  25  31 N/A        N/A
* ROUNDUP APT  MOCLDY    52  34  50 S5         N/A
* ALZADA       N/A       47  31  54 E6         N/A
* HYSHAM       N/A       59  30  33 W1         N/A
* LAME DEER    N/A       56  30  37 S2         N/A
* REED POINT   N/A       52  29  41 N/A        N/A
* ROSCOE HILL  N/A       59  21  23 SW21G35    N/A
$$

REGIONAL REPORTS...DAKOTAS
CITY           SKY/WX    TMP DP  RH WIND       PRES   REMARKS
WILLISTON      CLOUDY    48  36  63 W3        29.78S
DICKINSON      CLOUDY    50  30  46 CALM      29.81F
BEACH          N/A       46  32  58 SW7       29.84F
CROSBY         CLEAR     50  37  61 S9        29.74F
TIOGA          CLEAR     46  34  63 CALM      29.80S
BISMARCK       CLOUDY    52  34  50 W6        29.83R
GRAND FORKS    MOCLDY    50  37  61 S8        29.77F
FARGO          PTCLDY    54  39  57 S12       29.82S
BUFFALO SD     CLOUDY    50  30  46 SW8       29.82F
RAPID CITY     MOCLDY    48  32  54 NW3       29.92F
$$

REGIONAL REPORTS...WYOMING/IDAHO/WASHINGTON
CITY           SKY/WX    TMP DP  RH WIND       PRES   REMARKS
GILLETTE       MOCLDY    50  28  43 S6        29.94S
SHERIDAN       PTCLDY    43  34  71 S3        29.92R
CODY           MOCLDY    55  27  34 CALM      29.97F
YELLOWSTONE LA MOCLDY    43  28  56 VRB5      30.17S
SALMON         MOCLDY    54  43  67 CALM      29.96S
MULLAN PASS    CLOUDY    34  34 100 SW8G16    29.93S WCI  27
SAND POINT     CLOUDY    50  46  86 SW5       29.88R
SPOKANE        MOCLDY    48  45  89 SW15      29.92R
$$

REGIONAL REPORTS...ALBERTA
CITY           SKY/WX    TMP DP  RH WIND       PRES   REMARKS
CALGARY        N/A       39  30  70 N10       29.60R WCI  32
LETHBRIDGE     MOCLDY    52  39  61 SW24G38   29.65F
MEDICINE HAT   CLOUDY    57  41  55 SW17G23   29.67R
EDMONTON       FAIR      30  21  69 W2        29.55R
WATERTON GATE  N/A       45  37  74 SW8        N/A
CARDSTON       N/A       46  43  89 SW9        N/A
MILK RIVER     N/A       50  39  66 SW20G28    N/A
$$

REGIONAL REPORTS...SASKATCHEWAN
CITY           SKY/WX    TMP DP  RH WIND       PRES   REMARKS
SWIFT CURRENT  MOCLDY    52  41  66 SW15G21   29.64F
REGINA         MOCLDY    48  41  77 SE8       29.66F
VAL MARIE      N/A       52  41  66 S10        N/A
ASSINIBOIA     N/A       52  41  66 SW13       N/A
CORONACH       N/A       50  37  61 SW3        N/A

$$




USA.gov is the U.S. government's official web portal to all federal, state and local government web resources and services.